Weather in Alekseevka

Russia / Belgorod Oblast     50°37′47″N   38°41′17″E
temp.,
°C
wind,
m/s
gust,
m/s
humid.,
%
clouds,
%
prec.,
mm/h
press.,
hPa
HPBL,
m
18 may, tue
tue1800:00+17sse12785 0.0 100711
03:00+16s118872 0.0 100611
06:00+16e268071 0.0 1005134
09:00+19se5763100 0.0 1005436
12:00+23sse4662100 0.0 10051305
15:00+19ssw6781100 1.3 1005577
18:00+15s4892100 2.3 1006437
21:00+15se3995100 3.6 1006277
19 may, wed
wed1900:00+14sse389486 0.0 1006209
03:00+12se369694 0.0 1007138
06:00+12sse499392 0.0 1008348
09:00+14se3489100 0.0 1007342
12:00+19se5770100 0.6 10071280
15:00+14s31195100 7.7 1007662
18:00+15ese6108889 0.9 1004767
21:00+12s6139190 1.4 1006617
20 may, thu
thu2000:00+11sse4995100 0.0 1006332
03:00+11sse51096100 0.3 1006325
06:00+11sse51097100 0.6 1007415
09:00+14s6885100 0.6 1007689
12:00+14sw5889100 0.5 1009663
15:00+14ssw5785100 0.6 1010668
18:00+15sw588460 0.3 1011618
21:00+12sw33941 0.3 101259
21 may, fri
fri2100:00+10wsw359591 0.0 1013101
03:00+9wsw23966 0.0 101444
06:00+10w2594100 0.0 1015156
09:00+14w2379100 0.0 1016572
12:00+18w126278 0.0 1015875
15:00+20ene115887 0.0 1015980
18:00+19e3777100 0.0 1014191
21:00+17e51280100 0.0 1013282
22 may, sat
sat2200:00+17ese51676100 0.1 1011429
03:00+15ne2284100 0.3 101029
06:00+15e2785100 0.0 1010243
09:00+19se237097 0.1 1010512
12:00+23ene116270 0.0 1011923
15:00+25e2262100 0.0 10111009
18:00+22ene1175100 0.0 101129
21:00+19ne3384100 0.0 101242